FW0288 Weather Reports


time (UTC)temp
F
wind
direction
speed
knots
gust
knots
rain 1hr
in
rain 24hr
in
rain mn
in
humidity
%
barometer
mb
20260510204551 62 360 0.0 5.2 0.00 0.00 0.00 42 1016.2
20260510203042 65 360 0.9 7.8 0.00 0.00 0.00 38 1016.2
20260510201540 62 360 0.9 4.3 0.00 0.00 0.00 42 1016.2
20260510200040 62 360 0.9 9.6 0.00 0.00 0.00 46 1016.1
20260510194553 63 360 0.0 4.3 0.00 0.00 0.00 43 1016.3
20260510193040 63 360 0.0 3.5 0.00 0.00 0.00 43 1016.3
20260510191539 61 360 0.0 4.3 0.00 0.00 0.00 43 1016.2
20260510190047 60 360 0.9 5.2 0.00 0.00 0.00 46 1016.5
20260510184537 63 360 1.7 10.4 0.00 0.00 0.00 44 1016.6
20260510183034 63 360 0.9 4.3 0.00 0.00 0.00 45 1016.7
20260510181534 62 17 0.0 3.5 0.00 0.00 0.00 46 1016.8
20260510180034 63 360 0.0 1.7 0.00 0.00 0.00 48 1016.8
20260510174532 62 360 0.0 5.2 0.00 0.00 0.00 44 1016.8
20260510173028 59 131 0.0 3.5 0.00 0.00 0.00 46 1016.9
20260510171523 58 360 0.0 4.3 0.00 0.00 0.00 52 1016.7
20260510170022 59 90 0.0 2.6 0.00 0.00 0.00 49 1016.7
20260510164523 57 360 0.0 2.6 0.00 0.00 0.00 57 1016.9
20260510163016 58 360 0.0 0.9 0.00 0.00 0.00 56 1016.8
20260510161522 56 360 0.0 5.2 0.00 0.00 0.00 61 1016.9
20260510160009 56 360 0.0 2.6 0.00 0.00 0.00 63 1016.7
20260510154508 56 360 0.9 3.5 0.00 0.00 0.00 63 1016.7
20260510153005 55 92 0.0 2.6 0.00 0.00 0.00 65 1016.6
20260510151503 54 360 0.0 4.3 0.00 0.00 0.00 68 1016.3
20260510150122 53 101 0.0 1.7 0.00 0.00 0.00 72 1016.2
20260510144613 52 360 0.0 1.7 0.00 0.00 0.00 74 1016.1
20260510143053 52 115 0.0 1.7 0.00 0.00 0.00 76 1016.3
20260510141546 51 186 0.9 3.5 0.00 0.00 0.00 77 1016.3
20260510140042 49 360 0.0 1.7 0.00 0.00 0.00 80 1016.4
20260510134547 48 360 0.0 1.7 0.00 0.00 0.00 82 1016.4
20260510133045 48 360 0.0 0.9 0.00 0.00 0.00 83 1016.4
20260510131540 47 360 0.0 0.9 0.00 0.00 0.00 85 1016.4
20260510130037 47 360 0.0 0.9 0.00 0.00 0.00 86 1016.3
20260510124533 46 97 0.0 0.9 0.00 0.00 0.00 86 1016.3
20260510123030 45 360 0.0 0.9 0.00 0.00 0.00 85 1016.4
20260510121530 46 360 0.0 1.7 0.00 0.00 0.00 85 1016.4
20260510120024 46 360 0.0 1.7 0.00 0.00 0.00 84 1016.4
20260510114533 46 360 0.0 1.7 0.00 0.00 0.00 83 1016.1
20260510113027 46 41 0.0 0.9 0.00 0.00 0.00 83 1015.9
20260510111525 46 360 0.0 2.6 0.00 0.00 0.00 82 1015.5
20260510110025 47 360 0.9 3.5 0.00 0.00 0.00 80 1015.4
20260510104512 48 360 0.0 4.3 0.00 0.00 0.00 75 1015.3
20260510103009 48 360 0.0 0.0 0.00 0.00 0.00 75 1015.1
20260510101511 48 360 0.0 0.0 0.00 0.00 0.00 75 1015.0
20260510100008 48 360 0.0 0.0 0.00 0.00 0.00 74 1015.0
20260510094507 48 360 0.0 0.9 0.00 0.00 0.00 74 1014.9
20260510093006 48 360 0.0 0.9 0.00 0.00 0.00 73 1014.8
20260510091504 48 55 0.0 0.0 0.00 0.00 0.00 73 1014.7
20260510090003 48 360 0.0 0.0 0.00 0.00 0.00 73 1014.3
20260510084501 48 360 0.0 0.9 0.00 0.00 0.00 73 1014.0
20260510083100 48 360 0.0 0.0 0.00 0.00 0.00 73 1014.0
20260510081559 48 360 0.0 0.0 0.00 0.00 0.00 72 1014.0
20260510080103 48 360 0.0 0.0 0.00 0.00 0.00 73 1014.0
20260510074606 48 360 0.0 0.9 0.00 0.00 0.00 73 1014.0
20260510073056 48 360 0.0 0.9 0.00 0.00 0.00 73 1014.2
20260510071557 49 360 0.0 0.9 0.00 0.00 0.00 72 1014.2
20260510070108 49 360 0.0 0.0 0.00 0.00 0.00 70 1014.2
20260510064600 49 360 0.0 0.9 0.00 0.00 0.00 71 1014.1
20260510063054 48 360 0.0 0.0 0.00 0.00 0.00 72 1014.2
20260510061551 48 360 0.0 0.0 0.00 0.00 0.00 73 1014.4
20260510060048 48 360 0.0 0.0 0.00 0.00 0.00 74 1014.3
20260510054552 48 360 0.0 3.5 0.00 0.00 0.00 77 1014.1
20260510053044 49 53 0.0 0.9 0.00 0.00 0.00 76 1014.2
20260510051544 49 53 0.0 0.9 0.00 0.00 0.00 75 1014.2
20260510050042 49 36 0.0 0.0 0.00 0.00 0.00 74 1014.1
20260510044541 50 360 0.0 0.0 0.00 0.00 0.00 72 1014.3
20260510043039 50 360 0.0 0.9 0.00 0.00 0.00 70 1013.9
20260510041547 50 360 0.0 0.0 0.00 0.00 0.00 69 1014.0
20260510040037 50 360 0.0 0.0 0.00 0.00 0.00 68 1014.0
20260510034535 50 360 0.0 0.0 0.00 0.00 0.00 68 1013.7
20260510033033 50 303 0.0 0.9 0.00 0.00 0.00 67 1013.6
20260510031534 50 306 0.0 1.7 0.00 0.00 0.00 67 1013.1
20260510030029 50 355 0.0 2.6 0.00 0.00 0.00 67 1012.8
20260510024527 50 300 0.0 3.5 0.00 0.00 0.00 67 1011.8
20260510023022 51 336 0.9 7.8 0.00 0.00 0.00 67 1011.1
20260510021532 51 290 0.9 6.1 0.00 0.00 0.00 68 1010.4
20260510020022 52 298 0.0 9.6 0.00 0.00 0.00 67 1010.1
20260510014517 53 311 0.9 9.6 0.00 0.00 0.00 65 1009.7
20260510013012 54 360 0.9 13.9 0.00 0.00 0.00 64 1009.1
20260510011510 55 360 0.9 7.8 0.00 0.00 0.00 61 1008.2
20260510010006 56 360 2.6 17.4 0.00 0.00 0.00 59 1007.1
20260510004504 58 360 0.9 14.8 0.00 0.00 0.00 54 1006.2
20260510003003 66 360 7.0 26.1 0.00 0.00 0.00 40 1004.8
20260510001505 71 360 0.9 5.2 0.00 0.00 0.00 27 1003.4
20260510000001 72 360 0.9 5.2 0.00 0.00 0.00 26 1003.4
20260509234503 72 360 0.9 3.5 0.00 0.00 0.00 25 1003.0
20260509233100 73 360 0.9 7.0 0.00 0.00 0.00 23 1002.8
20260509231600 72 5 0.9 7.0 0.00 0.00 0.00 25 1002.7
20260509230107 74 360 0.9 7.0 0.00 0.00 0.00 23 1002.5
20260509224558 72 41 0.9 8.7 0.00 0.00 0.00 26 1002.4
20260509223100 72 360 0.0 4.3 0.00 0.00 0.00 23 1002.4
20260509221557 72 342 1.7 8.7 0.00 0.00 0.00 22 1002.1
20260509214554 72 360 1.7 7.8 0.00 0.00 0.00 24 1002.2
20260509213053 72 360 1.7 7.8 0.00 0.00 0.00 25 1002.3
20260509211554 72 360 2.6 11.3 0.00 0.00 0.00 24 1002.4
20260509210055 71 360 0.9 10.4 0.00 0.00 0.00 25 1002.6